Tracking 25949 objects as of 9-Aug-2022
HD Live streaming from Space Station
objects crossing your sky now

STARLINK-2319

Track STARLINK-2319 now!
10-day predictions
STARLINK-2319 is classified as:


NORAD ID: 47790
Int'l Code: 2021-018D
Perigee: 553.4 km
Apogee: 555.2 km
Inclination: 53.1 °
Period: 95.6 minutes
Semi major axis: 6925 km
RCS: Unknown
Launch date: March 11, 2021
Source: United States (US)
Launch site: AIR FORCE EASTERN TEST RANGE (AFETR)
aabbcc
Your satellite tracking list
Your tracking list is empty




NASA's NSSDC Master Catalog

Two Line Element Set (TLE):
1 47790U 21018D   22220.84493626  .00004245  00000-0  30358-3 0  9996
2 47790  53.0542 337.2579 0001264  87.1964 272.9170 15.06413273 79750
Source of the keplerian elements: AFSPC